Terug naar catalogus

SL-12 DEB

LostHEO
NORAD 28260·DEBRIS·🇷🇺 Russia

Gelanceerd Jan 10, 1989 vanaf Baikonur Cosmodrome

Loading…

Volgende Passages (komende 24 uur)

TLE

VerouderdSource: Space-Track

Epoch: Jan 12, 2007, 22:01 UTC

1 28260U 89001U   07012.91767777  .00009513  00000-0  83113-1 0  9992
2 28260 064.7182 342.3147 5326528 009.8120 357.4403 04.63996147 50160

Volg SL-12 DEB in realtime met AllMySat

Download on the App Store